Weather History for Chicago Lansing, IL

Change the Weather History Date:

Saturday, October 19, 2013

  Actual Average (KMDW) Record (KMDW)
Temperature  
Mean Temperature 48 °F 53 °F  
Max Temperature 55 °F 62 °F 84 °F (1971)
Min Temperature 41 °F 45 °F 24 °F (1930)
Degree Days  
Heating Degree Days 18 12  
Month to date heating degree days 177  
Since 1 July heating degree days 259  
Cooling Degree Days 0 0  
Month to date cooling degree days 13  
Year to date cooling degree days 1042  
Moisture  
Dew Point 36 °F    
Average Humidity 69    
Maximum Humidity 90    
Minimum Humidity 40    
Precipitation  
Precipitation 0.00 in 0.10 in 1.41 in (1961)
Month to date precipitation 1.92  
Year to date precipitation 31.78  
Sea Level Pressure  
Sea Level Pressure 29.86 in    
Wind  
Wind Speed 8 mph (WSW)    
Max Wind Speed 20 mph    
Max Gust Speed 28 mph    
Visibility 10 miles    
Events Rain    
T = Trace of Precipitation, MM = Missing Value Source: NWS Daily Summary

Daily Weather History Graph

Daily Weather History Graph

Search for Another Location

Airport:

Trip Planner

Search our weather history database for the weather conditions in past years. The results will help you decide how hot, cold, wet, or windy it might be!

Date:

Astronomy

Oct. 19, 2013 Rise Set
Actual Time 7:06 AM CDT 6:02 PM CDT
Civil Twilight 6:38 AM CDT 6:30 PM CDT
Nautical Twilight 6:06 AM CDT 7:02 PM CDT
Astronomical Twilight 5:34 AM CDT 7:34 PM CDT
Moon 6:29 PM CDT (10/19) 7:44 AM CDT (10/19)
Length of Visible Light 11h 51m
Length of Day
10h 55m
Waxing Gibbous, 99% of the Moon is Illuminated
Oct 19
Waxing Gibbous
Oct 26
Last Quarter
Nov 3
New
Nov 9
First Quarter
Nov 17
Full

Hourly Weather History & Observations

Time (CDT) Temp. Windchill Dew Point Humidity Pressure Visibility Wind Dir Wind Speed Gust Speed Precip Events Conditions
12:15 AM 45.5 °F 41.8 °F 37.4 °F 73% 29.95 in 10.0 mi WSW 6.9 mph - N/A   Overcast
12:35 AM 45.5 °F 42.5 °F 37.4 °F 73% 29.94 in 10.0 mi WSW 5.8 mph - N/A   Overcast
12:55 AM 45.5 °F 41.8 °F 37.4 °F 73% 29.94 in 10.0 mi WSW 6.9 mph - N/A   Overcast
1:15 AM 45.0 °F 41.8 °F 37.4 °F 75% 29.93 in 10.0 mi WSW 5.8 mph - N/A   Overcast
1:35 AM 44.1 °F 41.5 °F 37.6 °F 78% 29.92 in 10.0 mi WSW 4.6 mph - N/A   Mostly Cloudy
1:55 AM 44.1 °F 42.5 °F 37.6 °F 78% 29.91 in 10.0 mi SW 3.5 mph - N/A   Overcast
2:15 AM 43.7 °F 41.1 °F 37.8 °F 80% 29.91 in 10.0 mi SW 4.6 mph - N/A   Overcast
2:35 AM 43.7 °F 41.1 °F 38.1 °F 81% 29.91 in 10.0 mi SW 4.6 mph - N/A   Overcast
2:55 AM 43.7 °F 40.3 °F 38.3 °F 81% 29.90 in 10.0 mi SW 5.8 mph - N/A   Overcast
3:15 AM 43.7 °F 42.1 °F 38.3 °F 81% 29.89 in 10.0 mi WSW 3.5 mph - N/A   Overcast
3:35 AM 43.7 °F 41.1 °F 38.3 °F 81% 29.89 in 10.0 mi WSW 4.6 mph - N/A   Light Drizzle
3:55 AM 43.7 °F 40.3 °F 38.7 °F 82% 29.89 in 10.0 mi SW 5.8 mph - N/A Rain Light Rain
4:15 AM 43.7 °F 42.1 °F 38.8 °F 83% 29.88 in 10.0 mi WSW 3.5 mph - N/A Rain Light Rain
4:35 AM 43.3 °F 40.7 °F 38.8 °F 84% 29.88 in 10.0 mi SW 4.6 mph - N/A   Overcast
4:55 AM 43.0 °F 39.5 °F 39.0 °F 86% 29.88 in 10.0 mi SW 5.8 mph - N/A   Overcast
5:15 AM 43.2 °F 39.7 °F 39.2 °F 86% 29.88 in 10.0 mi SW 5.8 mph - N/A Rain Light Rain
5:35 AM 43.0 °F 38.8 °F 39.2 °F 86% 29.88 in 10.0 mi SW 6.9 mph - N/A Rain Light Rain
5:55 AM 42.6 °F 38.4 °F 39.6 °F 89% 29.87 in 10.0 mi SSW 6.9 mph - N/A   Overcast
6:15 AM 42.4 °F 37.5 °F 39.6 °F 90% 29.88 in 10.0 mi SW 8.1 mph - N/A   Mostly Cloudy
6:35 AM 42.4 °F 37.0 °F 39.4 °F 89% 29.88 in 10.0 mi SW 9.2 mph - N/A   Mostly Cloudy
6:55 AM 42.4 °F 37.0 °F 39.4 °F 89% 29.88 in 10.0 mi SW 9.2 mph - N/A   Mostly Cloudy
7:15 AM 42.1 °F 36.6 °F 38.8 °F 88% 29.88 in 10.0 mi WSW 9.2 mph - N/A   Scattered Clouds
7:35 AM 41.5 °F 37.8 °F 38.3 °F 88% 29.87 in 10.0 mi WSW 5.8 mph - N/A   Scattered Clouds
7:55 AM 41.9 °F 37.5 °F 38.5 °F 88% 29.88 in 10.0 mi WSW 6.9 mph - N/A   Scattered Clouds
8:15 AM 42.4 °F 37.0 °F 38.8 °F 87% 29.88 in 10.0 mi SW 9.2 mph - N/A   Scattered Clouds
8:35 AM 42.1 °F 37.1 °F 38.3 °F 86% 29.88 in 10.0 mi WSW 8.1 mph - N/A   Scattered Clouds
8:55 AM 44.1 °F 38.6 °F 38.8 °F 82% 29.88 in 10.0 mi WSW 10.4 mph - N/A   Scattered Clouds
9:15 AM 44.8 °F 39.0 °F 38.1 °F 77% 29.88 in 10.0 mi West 11.5 mph - N/A   Scattered Clouds
9:35 AM 45.9 °F 40.4 °F 37.8 °F 73% 29.87 in 10.0 mi WSW 11.5 mph - N/A   Clear
9:55 AM 46.6 °F - 37.8 °F 71% 29.87 in 10.0 mi SW 11.5 mph 16.1 mph N/A   Clear
10:15 AM 47.5 °F - 37.6 °F 69% 29.86 in 10.0 mi WSW 9.2 mph - N/A   Clear
10:35 AM 48.6 °F - 37.8 °F 66% 29.86 in 10.0 mi West 10.4 mph 16.1 mph N/A   Clear
10:55 AM 50.0 °F - 37.4 °F 62% 29.86 in 10.0 mi WSW 12.7 mph - N/A   Clear
11:15 AM 50.2 °F - 35.6 °F 57% 29.85 in 10.0 mi WSW 9.2 mph 16.1 mph N/A   Clear
11:35 AM 51.6 °F - 35.1 °F 53% 29.85 in 10.0 mi WSW 13.8 mph 17.3 mph N/A   Clear
11:55 AM 52.9 °F - 32.9 °F 47% 29.84 in 10.0 mi WSW 13.8 mph 20.7 mph N/A   Clear
1:55 PM 52.2 °F - 30.7 °F 44% 29.81 in 10.0 mi West 19.6 mph 25.3 mph N/A   Scattered Clouds
2:15 PM 54.9 °F - 32.0 °F 42% 29.81 in 10.0 mi WSW 19.6 mph 27.6 mph N/A   Scattered Clouds
2:35 PM 51.8 °F - 30.6 °F 44% 29.81 in 10.0 mi West 17.3 mph 24.2 mph N/A   Scattered Clouds
2:55 PM 51.4 °F - 31.6 °F 47% 29.81 in 10.0 mi West 17.3 mph 25.3 mph N/A   Scattered Clouds
3:15 PM 52.0 °F - 30.4 °F 44% 29.81 in 10.0 mi West 19.6 mph 23.0 mph N/A   Overcast
3:35 PM 51.3 °F - 30.0 °F 44% 29.81 in 10.0 mi West 15.0 mph 18.4 mph N/A   Mostly Cloudy
3:55 PM 52.0 °F - 29.8 °F 43% 29.81 in 10.0 mi West 16.1 mph - N/A   Scattered Clouds
4:15 PM 53.8 °F - 29.7 °F 40% 29.81 in 10.0 mi West 19.6 mph 24.2 mph N/A   Scattered Clouds
4:35 PM 51.1 °F - 30.4 °F 45% 29.81 in 10.0 mi West 12.7 mph - N/A   Scattered Clouds
4:55 PM 51.3 °F - 31.5 °F 47% 29.82 in 10.0 mi WSW 6.9 mph - N/A   Mostly Cloudy
5:15 PM 50.9 °F - 31.8 °F 48% 29.82 in 10.0 mi WSW 9.2 mph - N/A   Mostly Cloudy
5:35 PM 50.5 °F - 31.1 °F 47% 29.81 in 10.0 mi WSW 8.1 mph - N/A   Mostly Cloudy
5:55 PM 50.5 °F - 30.6 °F 46% 29.82 in 10.0 mi WSW 9.2 mph - N/A   Mostly Cloudy
6:15 PM 50.7 °F - 31.3 °F 47% 29.83 in 10.0 mi WSW 8.1 mph - N/A   Overcast
6:35 PM 50.4 °F - 33.8 °F 53% 29.84 in 10.0 mi West 11.5 mph 25.3 mph N/A Rain Light Rain
6:55 PM 49.3 °F - 35.2 °F 58% 29.85 in 10.0 mi West 11.5 mph 21.9 mph N/A Rain Light Rain
7:15 PM 48.7 °F - 35.4 °F 60% 29.86 in 10.0 mi West 11.5 mph 20.7 mph N/A Rain Light Rain
7:35 PM 47.3 °F - 37.4 °F 68% 29.86 in 10.0 mi West 10.4 mph 23.0 mph N/A Rain Light Rain
7:55 PM 47.3 °F - 37.6 °F 69% 29.86 in 10.0 mi West 6.9 mph - N/A Rain Light Rain
8:15 PM 46.9 °F - 37.6 °F 70% 29.86 in 10.0 mi WSW 5.8 mph - N/A   Overcast
8:35 PM 46.0 °F 44.8 °F 38.3 °F 74% 29.86 in 10.0 mi SSW 3.5 mph - N/A   Overcast
8:55 PM 44.1 °F 40.8 °F 38.1 °F 80% 29.86 in 10.0 mi SSW 5.8 mph - N/A   Overcast
9:15 PM 43.9 °F 40.5 °F 37.9 °F 80% 29.86 in 10.0 mi SSW 5.8 mph - N/A   Mostly Cloudy
9:35 PM 41.4 °F 36.8 °F 36.9 °F 84% 29.86 in 10.0 mi South 6.9 mph - N/A   Mostly Cloudy
9:55 PM 41.7 °F 38.0 °F 37.6 °F 85% 29.86 in 10.0 mi SSW 5.8 mph - N/A   Mostly Cloudy
10:15 PM 44.6 °F 40.2 °F 37.4 °F 76% 29.86 in 10.0 mi SSW 8.1 mph - N/A   Overcast
10:35 PM 45.0 °F 40.1 °F 36.7 °F 73% 29.86 in 10.0 mi SSW 9.2 mph - N/A   Overcast
10:55 PM 46.2 °F 42.2 °F 36.1 °F 68% 29.86 in 10.0 mi SW 8.1 mph - N/A   Overcast
11:15 PM 46.9 °F - 36.5 °F 67% 29.86 in 10.0 mi SW 11.5 mph - N/A   Overcast
11:35 PM 46.6 °F - 36.1 °F 67% 29.86 in 10.0 mi SW 10.4 mph - N/A   Overcast
11:55 PM 45.7 °F 41.5 °F 37.6 °F 73% 29.86 in 10.0 mi SW 8.1 mph - N/A Rain Light Rain